Temp
3 3 2 2 2 2 2 2 2 2 1 1 1 0 -0 -1 -1 -2 -2 -2 -3 -3 -3 -3 -3 -3 -4 -4 -4 -4 -5 -5 -5 -5 -5 -5 -5 -6 -6 -6 -6 -6
3 3 2 2 2 2 2 2 2 2 2 1 1 1 0 -0 -1 -1 -2 -2 -3 -3 -3 -3 -3 -4 -4 -4 -4 -5 -5 -5 -5 -6 -6 -6 -6 -6 -6 -6 -6 -6
3 3 3 2 2 2 2 2 2 2 2 2 2 1 1 0 -0 -1 -2 -2 -3 -3 -3 -3 -4 -4 -4 -4 -5 -5 -5 -5 -6 -6 -6 -6 -6 -7 -7 -7 -7 -7
3 3 3 3 3 2 2 2 2 2 2 2 2 2 1 1 0 -0 -1 -2 -2 -3 -3 -3 -4 -4 -4 -4 -5 -5 -5 -5 -5 -6 -6 -7 -7 -7 -7 -7 -7 -7
4 4 3 3 3 2 2 2 2 2 1 1 2 1 1 1 1 -0 -1 -2 -2 -3 -3 -3 -4 -4 -4 -5 -5 -5 -5 -6 -6 -6 -6 -7 -7 -7 -7 -8 -8 -8
4 4 3 3 3 2 2 2 2 2 1 2 2 1 1 1 1 0 -0 -1 -2 -2 -3 -3 -4 -4 -4 -5 -5 -5 -5 -6 -6 -6 -7 -7 -7 -7 -8 -8 -8 -8
4 4 4 4 3 3 2 2 2 2 2 2 1 1 1 1 1 1 -0 -1 -1 -2 -3 -3 -4 -4 -4 -5 -5 -5 -5 -6 -6 -6 -7 -7 -7 -8 -8 -8 -8 -9
5 5 4 4 3 3 3 2 2 2 2 2 1 1 1 1 1 1 0 -0 -1 -2 -2 -3 -3 -4 -4 -5 -5 -5 -5 -6 -6 -6 -7 -7 -7 -8 -8 -8 -9 -9
6 5 5 4 4 3 3 3 3 2 2 2 1 1 1 1 1 1 0 -0 -1 -2 -2 -3 -3 -4 -4 -5 -5 -5 -6 -6 -6 -6 -7 -7 -8 -8 -8 -9 -9 -9
6 6 5 5 4 4 3 3 3 3 2 2 2 1 1 1 1 1 0 -0 -1 -1 -2 -3 -3 -4 -4 -5 -5 -5 -6 -6 -6 -6 -7 -7 -7 -8 -8 -9 -9 -10
6 6 6 5 5 4 4 4 3 3 2 2 2 1 1 1 1 0 0 -0 -1 -1 -2 -2 -3 -4 -4 -5 -5 -5 -6 -6 -6 -7 -7 -7 -8 -8 -9 -9 -10 -10
6 6 6 5 5 5 4 4 3 3 2 2 2 1 1 1 0 0 0 -0 -1 -1 -2 -2 -3 -3 -4 -4 -5 -5 -6 -6 -7 -7 -7 -8 -8 -8 -9 -9 -10 -10
6 6 5 5 5 4 4 4 3 3 2 2 2 1 1 1 0 -0 -0 -0 -1 -1 -2 -2 -3 -3 -4 -5 -5 -6 -6 -7 -7 -7 -8 -8 -8 -9 -9 -10 -10 -11
4 4 4 4 4 3 3 3 3 2 2 2 2 1 1 1 0 -0 -0 -1 -1 -1 -2 -2 -3 -4 -4 -5 -6 -6 -7 -7 -7 -8 -8 -9 -9 -9 -10 -10 -11 -11
2 2 2 2 2 2 2 2 2 2 2 1 1 1 1 0 0 -0 -1 -1 -1 -2 -3 -3 -4 -4 -5 -6 -6 -7 -7 -8 -8 -8 -9 -9 -10 -10 -10 -11 -11 -11
1 1 1 1 1 1 1 1 1 1 1 0 0 -0 -0 -1 -1 -1 -2 -2 -2 -3 -4 -4 -5 -5 -6 -6 -6 -7 -7 -8 -9 -9 -9 -10 -10 -11 -11 -11 -11 -11
-0 -1 -1 -0 -1 -1 -0 -1 -1 -1 -1 -1 -1 -1 -1 -2 -2 -2 -3 -3 -3 -4 -4 -5 -5 -6 -6 -7 -7 -7 -8 -8 -9 -9 -10 -10 -11 -11 -11 -12 -12 -12
-2 -2 -2 -2 -2 -2 -2 -2 -2 -2 -2 -2 -2 -2 -3 -3 -3 -3 -4 -4 -4 -5 -5 -6 -6 -6 -7 -7 -8 -8 -8 -9 -9 -10 -10 -11 -11 -11 -11 -12 -12 -12
-3 -3 -3 -3 -3 -3 -3 -3 -3 -3 -3 -4 -4 -4 -4 -4 -4 -5 -5 -5 -6 -6 -6 -7 -7 -7 -8 -8 -8 -8 -8 -9 -10 -10 -11 -11 -11 -12 -12 -12 -12 -12
-4 -4 -4 -4 -4 -4 -4 -4 -4 -5 -5 -5 -5 -5 -5 -5 -6 -6 -6 -6 -7 -7 -7 -7 -8 -8 -8 -8 -8 -8 -8 -9 -10 -10 -11 -11 -12 -12 -12 -12 -12 -12
-5 -5 -5 -5 -5 -5 -5 -5 -6 -6 -6 -6 -6 -6 -6 -7 -7 -7 -7 -7 -8 -8 -8 -8 -8 -9 -9 -9 -9 -8 -8 -8 -10 -11 -11 -11 -12 -12 -12 -12 -12 -12
-6 -6 -6 -6 -6 -6 -7 -7 -7 -7 -7 -7 -7 -7 -7 -8 -8 -8 -8 -8 -9 -9 -9 -9 -9 -9 -10 -10 -9 -8 -8 -8 -9 -11 -11 -12 -12 -12 -12 -12 -12 -12
-8 -8 -7 -8 -8 -8 -8 -8 -8 -8 -8 -8 -8 -8 -9 -9 -9 -9 -9 -9 -10 -10 -10 -10 -10 -10 -10 -10 -9 -9 -9 -9 -10 -11 -12 -12 -12 -12 -12 -12 -12 -13
-9 -9 -9 -9 -9 -9 -9 -9 -9 -9 -9 -9 -9 -10 -10 -10 -10 -10 -10 -11 -11 -11 -11 -11 -11 -11 -11 -10 -10 -9 -9 -9 -10 -11 -12 -13 -13 -13 -13 -13 -13 -13
-10 -10 -10 -10 -10 -10 -10 -10 -10 -10 -10 -10 -11 -11 -11 -11 -11 -11 -11 -11 -11 -12 -12 -12 -12 -11 -11 -11 -10 -10 -10 -10 -10 -11 -12 -13 -13 -13 -13 -13 -14 -14
-11 -11 -11 -11 -11 -11 -11 -11 -11 -11 -11 -11 -11 -12 -12 -12 -12 -12 -12 -12 -12 -12 -12 -12 -12 -12 -12 -12 -11 -11 -10 -10 -11 -11 -12 -12 -13 -13 -14 -14 -14 -14
Height
770 771 771 772 772 772 773 773 774 774 775 775 775 774 774 775 777 779 780 781 783 784 786 788 790 792 794 795 797 798 799 799 800 801 803 804 805 806 807 808 809 809
765 766 767 767 767 767 767 768 769 769 770 770 770 770 771 771 772 774 775 776 778 779 781 783 785 787 789 790 792 793 794 795 796 797 799 800 801 802 803 804 806 807
761 761 762 761 760 761 761 763 764 765 765 765 765 766 766 766 767 768 769 771 772 774 776 778 779 781 783 785 787 788 789 790 791 793 794 795 796 798 799 801 802 803
756 756 756 755 755 756 757 759 759 759 760 760 760 761 761 762 763 763 764 765 767 768 770 772 774 776 778 780 782 783 784 785 787 789 790 791 792 793 795 797 798 799
751 751 751 752 752 752 753 754 753 754 754 754 754 756 757 758 757 757 758 759 760 762 764 766 768 770 772 774 776 778 779 781 783 785 786 786 787 789 791 793 794 795
747 748 748 748 748 748 749 748 748 748 748 748 749 750 752 753 752 752 752 753 754 756 758 760 762 764 767 769 771 772 774 775 777 780 781 781 783 785 786 788 790 791
743 743 743 743 743 744 744 743 743 743 743 743 744 745 746 747 747 747 747 747 749 750 752 754 756 758 760 763 765 766 768 770 772 774 775 776 779 781 782 784 786 787
738 739 739 739 739 739 738 738 738 737 737 738 738 739 740 741 741 742 742 743 744 744 746 748 750 752 754 757 758 760 762 764 766 768 770 772 774 776 777 780 781 783
734 734 735 735 734 734 733 732 732 732 732 733 733 733 735 736 736 737 738 738 739 740 741 743 744 746 748 750 751 753 756 758 760 762 764 766 768 770 772 775 777 778
730 730 730 730 730 729 728 727 727 727 727 727 727 728 729 730 731 733 733 734 734 735 736 737 739 741 743 744 746 747 750 752 755 757 758 760 762 764 767 770 771 773
727 726 726 726 725 724 723 723 722 722 722 723 723 723 724 725 726 728 729 729 729 730 731 732 734 736 737 739 740 743 745 747 750 752 754 756 758 760 763 765 767 769
724 723 723 722 721 720 719 718 718 718 718 718 718 719 719 721 722 723 724 724 725 726 727 728 729 731 732 734 736 738 741 743 746 748 750 752 754 756 759 761 763 765
722 721 720 719 718 717 716 715 714 714 714 714 714 715 715 716 717 718 719 720 721 722 723 724 725 727 728 730 732 734 737 739 741 744 746 748 751 753 755 757 759 761
720 719 717 716 715 714 713 712 711 710 710 710 711 711 712 712 713 714 715 717 718 718 719 720 722 723 724 726 728 731 733 735 738 740 743 745 748 750 752 754 756 758
718 717 715 714 713 712 711 710 709 708 708 708 708 708 709 710 711 712 713 713 714 715 716 718 718 719 721 723 725 728 730 732 735 737 739 742 744 746 748 750 753 755
717 715 714 713 712 710 710 709 708 707 707 706 707 707 708 708 709 710 710 711 712 713 714 715 716 717 719 720 722 725 727 729 732 734 736 739 741 743 745 747 749 751
716 715 713 712 711 710 709 708 708 707 707 706 706 707 707 707 708 708 709 710 711 711 712 713 714 715 717 719 721 723 724 726 728 730 733 735 737 739 741 743 745 747
715 714 713 712 711 710 709 708 707 707 707 706 706 707 707 707 707 708 708 709 709 710 711 711 712 713 715 717 719 721 722 723 725 727 729 731 733 735 737 739 742 744
715 714 713 711 710 710 709 708 707 707 707 706 706 706 706 706 707 707 707 708 708 709 709 709 710 711 713 715 717 718 720 721 722 724 726 727 729 731 734 736 738 740
715 714 713 711 710 709 708 708 707 707 706 706 706 706 706 706 706 706 706 707 707 707 708 708 709 710 711 713 715 716 718 718 718 720 723 724 726 728 730 732 735 737
715 714 713 712 710 710 708 708 707 706 706 705 705 705 705 705 705 705 705 705 706 706 706 706 707 708 710 712 713 714 716 716 715 716 719 722 723 725 727 729 731 734
716 715 713 712 711 709 708 707 706 706 705 705 704 704 704 704 704 704 704 704 705 705 705 705 706 707 708 710 711 712 713 714 713 714 716 719 720 722 724 726 728 730
717 715 713 712 710 709 708 707 706 705 705 704 704 703 703 703 703 703 703 704 704 704 705 704 705 706 707 709 710 710 711 712 712 712 714 716 717 719 721 722 725 726
716 714 713 711 709 708 707 706 705 705 704 704 703 703 702 702 702 702 702 703 703 704 704 704 704 705 707 707 708 709 710 711 711 711 712 713 715 717 718 719 721 722
715 714 712 710 709 708 707 706 705 704 703 703 703 702 702 702 702 702 702 702 703 703 704 704 704 705 706 707 707 708 709 709 710 710 710 711 713 714 715 716 717 718
715 713 711 710 709 707 706 705 704 704 703 703 702 702 702 702 702 702 702 702 702 703 703 704 704 704 705 706 707 707 708 708 708 708 709 709 710 711 712 713 713 714
Wind_Speed
47 46 46 45 45 46 45 44 44 43 43 43 43 45 46 47 48 47 49 51 51 51 51 50 50 49 47 46 45 45 44 44 44 44 43 43 43 42 41 41 40 38
47 46 46 45 45 46 46 46 45 44 44 44 44 44 45 45 46 47 48 50 50 51 51 50 50 49 48 46 45 45 44 43 43 43 43 43 43 41 41 41 40 39
46 46 46 47 47 47 47 46 45 44 45 45 44 44 44 44 45 46 48 49 49 50 50 50 50 49 48 47 46 45 45 44 44 43 42 43 43 42 41 40 40 39
45 46 47 48 48 48 47 45 44 44 45 45 45 45 44 42 42 44 46 48 49 49 50 50 50 49 48 48 46 45 45 44 44 42 41 42 42 42 41 39 39 38
44 45 46 46 47 47 45 44 44 45 45 46 46 45 43 41 41 43 45 47 48 49 49 49 49 49 48 47 46 45 44 43 42 41 41 41 41 41 41 39 38 37
41 42 43 44 45 45 44 44 46 46 46 47 46 45 43 42 42 42 43 46 47 48 48 48 48 48 47 46 46 46 45 43 43 42 42 42 40 40 39 38 38 37
40 41 41 43 44 44 44 45 46 46 46 47 46 44 43 42 43 42 43 45 46 47 48 48 48 48 47 46 46 46 45 44 43 42 42 41 39 38 38 38 38 37
38 39 40 40 41 42 43 45 45 46 46 45 44 44 43 42 43 43 42 43 45 46 47 47 48 48 47 47 47 47 45 44 43 42 42 41 38 38 38 37 37 37
36 36 37 38 39 40 42 44 45 46 45 44 44 44 42 42 43 43 42 42 43 45 46 46 47 47 47 47 48 47 46 44 43 43 42 41 40 39 38 37 36 37
33 34 35 36 37 39 41 43 44 44 43 43 43 42 41 41 41 41 41 41 42 43 44 45 46 46 46 47 48 47 46 45 44 43 43 42 42 41 39 38 38 37
31 32 33 34 36 38 40 41 42 42 42 41 41 41 40 40 39 39 40 40 41 42 43 44 45 46 46 46 47 46 45 45 44 43 43 42 42 40 39 39 38 38
28 29 30 32 33 35 38 39 39 40 39 39 39 39 39 38 37 38 39 40 41 42 42 43 44 44 45 45 45 44 43 43 42 42 42 41 40 39 39 39 39 38
27 28 29 30 31 33 35 36 37 37 37 38 38 37 36 36 36 36 37 39 40 40 41 42 42 42 43 43 42 42 42 41 41 41 40 39 39 38 38 38 38 38
27 27 27 27 27 28 30 31 32 33 34 34 34 34 34 35 35 35 36 37 37 38 39 39 40 40 40 40 40 40 40 40 39 39 38 37 37 37 37 37 37 37
21 21 21 21 22 23 23 24 25 26 27 28 29 30 31 31 32 33 33 34 35 35 36 36 36 37 38 38 38 38 38 38 38 38 37 37 36 35 35 36 36 36
18 18 18 18 18 17 17 17 17 18 19 21 22 24 25 26 28 29 30 31 32 32 32 33 34 35 36 37 38 38 38 37 37 37 37 36 35 34 34 34 35 36
19 19 18 17 16 15 15 14 13 13 14 15 17 18 20 22 23 24 26 28 29 29 30 31 32 34 34 34 36 37 38 37 36 36 36 35 34 34 34 34 35 35
19 19 18 17 16 15 14 13 13 12 12 13 14 15 17 19 20 22 24 25 26 27 28 30 31 32 32 32 33 33 35 37 36 35 34 34 34 34 34 34 34 34
18 17 16 15 14 14 14 14 14 14 13 14 14 15 16 17 19 20 22 23 24 26 27 29 30 30 30 30 29 29 30 33 36 35 34 34 34 34 34 33 32 32
17 16 15 14 14 14 14 15 15 15 15 15 16 16 17 18 19 20 21 22 24 25 26 28 28 29 29 26 26 26 28 31 34 35 34 34 34 34 34 34 33 33
15 15 15 15 15 15 15 15 15 16 16 16 17 17 18 19 19 20 21 22 23 24 25 26 27 28 27 24 24 26 28 30 32 33 34 33 33 34 34 34 34 34
16 17 17 17 16 16 16 16 16 16 16 17 17 18 18 19 19 20 20 21 22 22 23 24 25 25 23 22 23 24 26 28 28 30 33 33 33 34 35 35 35 35
18 18 18 17 17 16 16 16 16 16 16 16 17 17 17 18 18 19 19 19 20 20 21 22 23 22 20 20 21 23 24 24 22 24 29 32 32 33 34 34 34 35
18 18 18 17 17 16 17 17 16 16 15 15 15 16 16 16 16 16 16 17 17 18 19 20 21 21 19 18 19 21 22 22 18 17 22 26 28 30 31 33 34 35
18 18 17 17 17 16 16 16 15 14 14 14 13 14 14 14 14 14 14 15 15 16 17 17 19 19 18 17 18 18 19 20 18 16 17 20 23 25 28 30 32 34
18 17 17 17 16 16 15 14 13 13 12 12 12 12 12 12 11 12 12 13 13 14 15 16 17 18 19 18 18 18 18 19 20 20 20 20 22 23 25 27 29 32
Wind_Direction
233 234 234 235 236 237 237 236 235 234 234 233 231 232 231 231 230 227 226 226 225 225 225 224 224 223 223 222 221 220 220 219 219 218 217 217 218 218 217 216 215 215
235 235 236 236 237 238 238 238 238 237 237 237 236 236 236 234 232 229 227 226 225 225 225 224 224 224 223 222 221 220 220 220 219 218 218 218 219 218 218 218 217 217
237 237 237 237 238 239 240 240 239 239 240 240 240 239 239 236 233 230 228 227 226 226 225 224 224 223 223 222 221 221 220 220 220 219 218 219 219 219 219 219 218 218
239 239 239 239 240 241 242 241 241 241 241 242 242 241 240 238 235 231 229 227 226 226 225 224 224 223 223 222 221 221 221 221 221 219 218 220 219 219 219 219 219 219
242 242 242 242 243 243 243 242 242 242 242 243 243 242 241 239 236 232 229 226 225 225 224 223 223 222 222 221 220 220 220 221 221 219 219 220 219 219 219 218 217 218
246 245 245 245 245 245 244 244 244 244 244 244 244 243 241 240 238 234 230 227 224 223 223 222 222 221 221 220 219 220 220 220 220 219 219 220 219 219 218 217 217 217
250 249 249 249 248 247 246 246 247 246 246 246 245 244 242 240 238 235 232 228 225 223 222 221 221 220 219 218 218 219 220 220 219 218 218 219 219 218 217 217 216 216
255 254 253 252 250 249 248 248 248 248 247 246 245 244 242 240 239 237 233 230 226 224 222 221 220 219 218 217 217 218 218 218 218 217 217 218 217 217 216 215 215 215
259 258 256 255 253 251 251 250 250 250 249 246 245 245 243 241 239 238 234 230 227 224 222 220 220 219 218 217 217 217 217 217 217 216 216 216 215 216 215 213 213 214
261 261 260 258 256 255 254 253 252 251 249 247 246 245 243 241 239 237 234 231 227 224 222 221 220 219 218 218 218 218 217 217 216 216 216 216 216 215 213 212 212 213
264 264 263 262 261 260 258 257 255 253 250 248 246 244 243 241 239 236 233 230 228 226 223 221 221 219 218 218 218 218 218 217 217 216 217 217 217 216 214 212 213 213
268 268 269 269 270 269 266 263 259 255 252 249 246 244 242 240 238 235 232 230 229 227 225 223 222 220 219 219 218 217 217 217 217 217 217 217 217 216 215 215 215 215
281 280 278 278 279 279 276 271 265 259 255 251 248 245 242 239 237 235 233 232 230 228 226 225 223 221 220 219 217 217 216 216 216 216 217 217 217 217 216 217 216 216
294 290 286 286 287 287 284 278 271 264 258 254 250 245 242 241 238 237 235 233 231 228 227 225 222 220 219 217 216 215 215 215 215 215 216 216 217 217 217 217 217 217
305 301 299 297 295 292 288 282 275 267 260 255 250 246 244 242 239 238 235 232 230 228 225 223 221 220 218 217 215 214 214 215 215 215 215 216 216 217 218 218 218 217
319 316 312 307 302 298 293 287 280 271 262 255 250 246 244 241 239 237 234 232 230 227 225 223 222 221 220 219 217 215 214 214 215 215 216 216 216 216 216 217 218 218
323 320 317 313 309 306 302 297 289 279 269 260 253 249 245 242 240 238 236 234 232 229 227 225 225 225 223 221 220 219 217 216 215 216 216 216 216 215 215 216 216 218
326 322 320 316 312 308 304 301 295 287 279 271 264 259 254 250 247 245 242 239 235 232 230 229 229 228 226 224 221 219 219 219 217 216 216 216 216 215 215 215 215 217
331 326 323 318 313 309 305 302 299 294 289 282 276 270 264 258 253 250 246 242 239 236 234 234 233 231 229 226 223 218 217 219 219 217 216 216 216 216 216 215 215 215
332 328 324 318 314 309 304 300 297 293 289 284 279 274 268 263 258 253 250 247 244 241 240 239 237 236 232 227 223 222 221 221 219 217 217 217 217 216 216 216 216 216
332 328 323 318 313 308 302 298 293 289 286 282 279 275 271 266 262 259 255 252 249 246 244 242 241 239 235 229 227 228 228 225 219 213 214 218 218 218 218 218 219 220
333 327 321 316 312 305 299 294 291 287 284 281 278 275 271 267 264 261 258 255 252 248 245 243 243 241 235 230 231 233 231 229 221 212 211 216 219 220 221 223 224 225
329 324 319 315 311 304 299 296 292 289 286 282 278 274 270 268 265 262 259 256 253 249 245 243 243 241 235 231 234 235 232 230 225 214 211 214 218 221 223 226 227 228
326 322 319 316 312 307 302 299 296 292 288 284 279 274 271 269 266 263 260 256 254 251 246 245 245 243 238 234 237 238 234 231 232 223 213 214 218 222 225 228 229 230
328 323 320 319 316 311 307 305 300 296 291 286 281 276 274 272 267 263 259 256 255 253 248 246 248 247 242 238 241 244 240 240 245 244 231 223 222 223 225 227 228 230
329 325 322 322 320 317 315 313 307 301 296 290 286 280 275 270 264 260 258 256 255 254 252 250 251 253 250 245 245 249 251 254 257 256 249 242 237 231 227 225 225 226